Location: Lichtensteig
(47.3376°N, 9.0841°E)
Time: 00:26:25
(UTC+00:00)

Cosmos 2154 Rocket - Pass Details

Date: 03 March 2021
Orbit: 966 x 996 km, 82.9° (Epoch: 14 April)

Event Time Altitude Azimuth Distance (km) Brightness Sun altitude
Rises 17:34:04 0° 165° (SSE) 3,657 6.9 -4.6°
Reaches altitude 10° 17:36:41 10° 159° (SSE) 2,710 6.2 -5.0°
Maximum altitude 17:42:29 44° 90° (E) 1,315 4.3 -6.0°
Drops below altitude 10° 17:48:19 10° 20° (NNE) 2,718 6.1 -7.0°
Sets 17:50:56 0° 14° (NNE) 3,668 6.8 -7.4°
